Temp
0 -0 -1 -1 -2 -2 -2 -2 -2 -1 -1 -0 1 3 3 3 3 5 11 14 15 14 14 14 13 13 13 13 13 13 13 13 14 15 16 17 17 16 16 16 15 14 14
0 -0 -1 -1 -2 -2 -2 -2 -2 -1 -1 -1 0 2 2 2 1 1 3 5 12 13 13 12 12 12 13 13 13 13 13 13 14 13 15 15 15 16 16 16 16 15 14
-0 -1 -1 -1 -2 -2 -2 -2 -2 -2 -1 -1 0 1 0 -0 1 -0 3 2 5 8 10 11 11 11 12 13 13 13 13 13 13 14 14 15 15 16 14 14 16 16 15
-1 -1 -2 -2 -1 -1 -2 -2 -2 -2 -2 -1 -1 -0 -1 -1 -2 -1 1 1 3 5 6 6 6 6 6 8 9 10 11 12 13 13 13 13 12 13 13 13 13 13 13
-1 -2 -2 -2 -2 -2 -2 -3 -3 -3 -2 -2 -2 -1 -2 -2 -3 -2 -1 -0 1 2 3 3 3 2 2 3 4 5 8 8 10 13 13 12 11 11 12 13 12 12 13
-2 -3 -3 -3 -3 -3 -3 -3 -3 -3 -3 -3 -3 -2 -2 -3 -4 -4 -2 -1 -1 -0 0 0 1 1 1 1 1 2 4 5 6 8 11 9 11 12 12 13 12 11 8
-3 -3 -3 -3 -3 -3 -3 -3 -3 -3 -3 -4 -3 -3 -3 -3 -4 -5 -5 -4 -3 -3 -2 -1 -1 -0 -1 -0 1 1 2 2 3 3 5 8 10 12 12 11 11 11 12
-4 -4 -4 -4 -4 -4 -4 -4 -4 -4 -4 -4 -4 -4 -5 -5 -4 -5 -5 -5 -5 -4 -3 -2 -2 -2 -2 -2 -2 -2 -2 -0 0 1 3 4 6 8 9 11 11 10 10
-5 -5 -5 -5 -4 -4 -4 -5 -4 -4 -4 -5 -5 -5 -5 -6 -5 -5 -6 -6 -6 -5 -5 -4 -3 -3 -4 -4 -3 -3 -2 -1 -1 -0 0 2 5 7 8 8 10 8 4
-6 -5 -5 -5 -5 -5 -5 -5 -5 -4 -5 -5 -5 -6 -6 -6 -6 -6 -6 -6 -6 -6 -6 -5 -5 -5 -5 -4 -3 -3 -2 -2 -1 -0 1 4 4 6 7 8 9 9 5
-6 -6 -6 -6 -5 -5 -5 -5 -6 -5 -5 -6 -6 -6 -7 -7 -7 -6 -6 -6 -6 -6 -6 -6 -5 -5 -4 -3 -2 -2 -2 -2 -2 -1 -0 1 2 3 5 6 7 8 7
-7 -7 -6 -6 -6 -6 -6 -6 -6 -6 -6 -6 -6 -6 -7 -8 -8 -7 -6 -6 -6 -6 -6 -6 -5 -4 -3 -3 -3 -3 -3 -3 -3 -2 -2 -1 0 2 3 4 5 6 8
-7 -7 -7 -6 -6 -6 -6 -7 -6 -6 -6 -6 -6 -7 -8 -8 -8 -7 -7 -7 -7 -7 -6 -6 -5 -4 -5 -5 -4 -4 -5 -5 -5 -4 -3 -2 -2 -1 1 3 4 5 6
-7 -7 -7 -7 -7 -6 -6 -6 -7 -7 -6 -6 -7 -8 -8 -8 -8 -7 -7 -8 -8 -8 -7 -7 -6 -6 -6 -6 -6 -6 -6 -6 -6 -5 -5 -4 -3 -2 -1 1 1 3 3
-8 -7 -7 -7 -7 -7 -7 -7 -7 -7 -6 -7 -8 -8 -8 -8 -8 -7 -8 -8 -8 -9 -8 -8 -8 -8 -7 -7 -7 -7 -7 -7 -7 -7 -6 -5 -4 -4 -2 -1 -0 1 2
-9 -8 -7 -7 -7 -7 -7 -7 -6 -7 -7 -7 -8 -8 -8 -8 -8 -8 -9 -9 -9 -10 -10 -10 -10 -10 -9 -8 -8 -8 -8 -7 -8 -7 -7 -6 -6 -5 -4 -2 -1 -0 0
-9 -8 -8 -7 -8 -7 -7 -7 -8 -7 -7 -8 -8 -9 -8 -8 -9 -9 -10 -10 -11 -11 -12 -11 -11 -11 -10 -9 -9 -9 -8 -8 -8 -8 -8 -7 -7 -6 -5 -4 -2 -1 -0
-8 -8 -8 -8 -8 -7 -7 -7 -7 -8 -9 -8 -9 -9 -10 -10 -10 -10 -11 -12 -12 -12 -13 -12 -12 -12 -12 -11 -11 -10 -10 -9 -9 -8 -8 -8 -7 -6 -5 -4 -3 -2 -1
-9 -9 -9 -8 -8 -8 -8 -7 -8 -8 -8 -9 -10 -10 -10 -11 -11 -12 -12 -13 -13 -14 -14 -14 -13 -13 -13 -13 -12 -12 -11 -10 -9 -9 -9 -8 -8 -7 -6 -5 -4 -3 -2
-10 -10 -9 -9 -9 -9 -9 -9 -8 -8 -9 -9 -10 -11 -11 -11 -13 -13 -13 -14 -14 -14 -14 -14 -14 -14 -14 -13 -13 -12 -12 -11 -10 -10 -9 -8 -7 -7 -6 -5 -5 -4 -3
-10 -10 -10 -10 -10 -10 -10 -10 -9 -9 -9 -10 -11 -11 -12 -13 -13 -14 -14 -14 -15 -15 -15 -15 -15 -14 -14 -14 -13 -13 -12 -12 -11 -10 -10 -8 -7 -7 -6 -5 -5 -5 -4
-11 -11 -11 -11 -11 -11 -11 -10 -10 -10 -10 -11 -11 -12 -13 -13 -14 -14 -14 -14 -14 -14 -15 -15 -15 -14 -14 -14 -13 -13 -13 -12 -11 -10 -9 -8 -7 -6 -6 -6 -5 -4 -4
-11 -12 -12 -12 -12 -11 -11 -11 -11 -11 -11 -12 -13 -13 -14 -14 -15 -15 -15 -15 -15 -14 -14 -14 -14 -14 -14 -13 -13 -13 -13 -12 -11 -10 -9 -8 -7 -7 -6 -5 -5 -5 -5
-12 -12 -12 -12 -13 -12 -12 -12 -12 -12 -12 -13 -13 -14 -15 -15 -15 -15 -15 -15 -15 -15 -14 -14 -14 -14 -14 -13 -13 -12 -12 -11 -10 -9 -9 -8 -8 -7 -6 -6 -6 -5 -6
-13 -13 -13 -13 -13 -13 -13 -13 -13 -13 -13 -14 -15 -15 -15 -15 -16 -16 -16 -16 -15 -15 -15 -15 -15 -14 -14 -13 -13 -12 -12 -11 -10 -10 -9 -8 -8 -8 -7 -7 -6 -6 -6
-13 -13 -13 -13 -14 -14 -14 -14 -14 -14 -14 -15 -15 -16 -16 -16 -16 -16 -16 -16 -16 -16 -15 -15 -15 -14 -14 -14 -13 -12 -12 -11 -10 -10 -9 -9 -9 -8 -8 -8 -8 -7 -7
Height
812 807 802 796 791 784 777 770 761 752 744 736 728 719 712 697 686 674 665 660 659 662 667 671 676 679 684 692 695 698 700 704 706 706 707 710 713 715 717 721 722 724 727
809 804 799 794 789 782 774 766 758 750 741 733 726 717 708 697 689 686 668 663 659 660 664 669 673 677 681 685 689 691 693 696 699 698 699 704 706 708 711 712 714 716 719
808 803 798 793 786 780 772 764 757 749 740 731 724 717 708 701 692 686 675 673 667 662 663 666 670 673 677 676 680 684 687 689 691 693 694 697 700 702 704 705 707 707 708
808 802 797 791 785 778 771 764 757 749 740 731 725 719 712 704 695 690 679 675 676 668 664 666 668 671 674 673 674 678 680 684 685 687 689 692 695 695 697 699 701 701 702
806 801 796 790 784 777 770 764 758 750 742 734 727 721 716 711 704 692 687 684 683 670 672 672 674 675 677 675 674 677 676 679 682 682 685 686 689 690 690 693 694 695 697
806 801 796 789 783 776 770 764 758 751 744 735 729 724 719 715 711 702 693 687 683 679 682 680 675 674 675 675 675 678 680 680 682 681 681 681 682 683 685 686 688 691 692
806 801 794 788 783 777 771 765 758 752 746 739 732 726 721 717 713 706 694 675 694 686 684 681 675 677 677 677 675 679 678 678 678 678 680 680 679 680 682 682 682 680 681
805 799 794 788 783 778 772 766 759 753 748 741 735 731 725 718 712 707 696 698 696 694 672 676 690 688 686 678 675 679 678 676 675 675 676 677 676 675 677 675 674 675 675
805 799 794 789 784 778 773 767 761 756 750 744 740 734 729 722 717 710 701 699 702 687 693 699 694 690 687 678 676 677 676 674 674 671 671 670 669 669 670 669 670 670 671
805 800 795 790 785 780 774 768 763 757 752 747 743 739 732 725 717 712 708 705 699 696 694 687 688 691 683 677 675 676 674 672 668 665 665 663 662 661 663 663 665 663 664
805 800 795 790 786 781 775 770 764 759 754 749 743 738 733 727 721 716 712 705 702 699 692 693 690 685 681 678 678 679 674 673 665 666 662 659 657 656 658 659 658 658 657
805 800 795 790 785 780 775 770 765 760 755 750 745 739 733 728 722 717 713 711 707 700 691 689 686 683 679 680 682 678 672 671 665 664 662 659 655 654 654 653 650 650 652
804 800 795 790 785 781 775 771 767 762 757 751 746 742 736 730 723 718 713 707 704 699 695 692 687 685 683 682 680 675 671 665 666 665 664 659 656 654 651 647 645 644 645
803 798 794 790 786 781 776 772 768 764 759 754 749 744 738 733 727 720 714 707 701 696 695 692 689 686 685 685 678 672 668 665 664 664 662 657 654 652 648 645 643 642 641
803 798 793 789 785 781 778 773 770 766 762 757 753 748 741 735 730 725 718 712 707 703 697 691 688 686 682 679 674 671 668 666 664 661 660 657 652 648 645 643 642 641 640
803 798 793 789 785 780 776 773 771 767 763 760 756 751 746 741 735 729 723 716 711 705 698 696 694 690 685 681 677 673 671 669 666 663 661 657 651 646 643 639 639 638 637
804 799 794 790 785 781 776 772 768 765 763 760 757 754 749 744 738 733 728 721 715 710 707 704 701 696 692 688 683 679 675 672 667 664 659 654 650 645 642 639 638 634 632
804 800 796 791 786 781 776 772 769 766 762 760 757 754 750 745 741 736 730 723 717 714 711 707 703 698 693 689 685 680 675 670 666 662 658 654 651 647 642 637 635 632 629
804 800 796 791 787 783 777 773 770 766 763 759 756 753 749 745 742 737 732 727 724 720 717 713 709 703 697 692 685 680 677 672 666 661 658 654 650 646 640 635 631 629 627
805 801 797 792 788 784 779 774 771 768 764 760 756 753 749 745 740 736 733 730 727 723 719 715 711 706 701 696 688 684 677 670 664 659 654 650 645 640 636 631 628 625 624
806 802 798 793 790 786 782 777 773 769 766 763 760 756 752 748 744 740 736 732 728 725 721 718 713 706 700 694 688 682 676 669 663 657 652 647 642 637 633 627 624 623 621
807 803 798 795 791 787 783 779 776 772 769 766 763 759 755 751 746 742 738 734 730 727 722 719 714 709 701 695 690 685 677 671 663 657 650 645 640 635 629 624 622 621 621
808 804 800 796 793 789 785 781 778 775 772 769 765 762 758 754 750 746 742 738 733 729 724 720 714 707 700 695 691 686 677 671 665 659 651 646 641 634 629 624 622 622 622
808 805 801 797 794 790 787 784 781 777 774 771 768 764 761 757 753 749 744 739 735 730 725 720 715 710 704 698 692 686 680 674 667 659 653 648 643 636 630 626 625 624 624
809 806 802 799 796 793 789 786 782 779 776 773 769 766 762 758 754 750 746 742 738 733 728 723 719 713 708 702 696 689 682 675 668 663 657 652 645 639 635 631 629 628 629
810 807 803 800 797 794 791 788 784 781 778 775 771 768 764 760 756 752 748 744 740 736 731 726 722 717 711 704 699 692 685 679 673 666 661 655 649 645 641 639 636 635 635
Wind_Speed
24 25 27 28 27 27 25 29 30 33 34 31 32 30 25 32 39 34 17 25 27 25 22 25 25 26 22 21 23 22 22 23 10 15 23 24 26 25 32 34 34 35 43
23 26 26 29 27 27 27 30 33 34 33 33 29 25 24 30 37 33 31 30 13 21 20 18 15 14 21 26 25 24 24 24 21 8 17 26 27 32 37 34 33 34 36
23 26 25 25 26 27 29 31 33 33 33 33 28 26 23 27 34 33 28 29 21 12 12 12 9 6 12 16 20 20 22 21 22 17 13 21 29 29 29 34 33 34 32
22 24 24 27 26 26 30 29 32 31 32 31 30 25 23 28 31 31 29 30 25 18 21 23 18 17 11 8 7 6 5 4 15 15 15 15 17 20 23 20 24 32 34
22 22 23 25 26 26 25 27 27 28 29 27 28 26 26 28 33 32 26 26 23 25 23 21 19 20 19 16 11 8 6 7 5 7 11 9 11 9 14 21 24 28 37
21 22 23 25 27 26 28 26 25 25 28 28 29 27 25 25 30 30 25 24 25 25 19 19 18 18 16 16 15 11 6 4 6 4 4 7 16 21 20 27 21 13 4
20 22 24 25 25 25 27 27 26 26 26 24 27 27 27 27 30 32 29 31 23 20 18 18 23 21 19 17 15 13 7 5 5 8 11 11 11 18 23 27 26 21 17
21 23 25 26 24 25 26 26 25 25 25 25 24 25 24 26 31 34 32 27 24 21 28 26 18 16 19 21 19 16 13 10 6 6 11 18 18 17 15 24 28 25 22
22 22 24 26 24 24 26 26 25 21 23 23 23 26 25 27 28 31 31 24 21 25 18 15 16 18 21 20 18 18 16 15 13 13 14 16 18 21 18 18 22 13 5
21 22 24 24 23 23 25 25 25 21 23 21 19 20 21 26 28 28 28 23 23 21 18 21 20 17 21 20 17 18 17 18 23 23 18 16 16 17 17 16 24 18 6
22 22 23 23 22 21 24 23 24 22 21 21 18 20 20 24 26 25 25 25 23 21 18 19 23 21 21 17 15 13 15 20 20 20 20 21 19 19 18 18 19 29 18
24 23 24 23 23 23 24 24 25 23 20 19 18 20 21 25 25 25 24 24 22 21 22 25 25 21 20 15 14 14 15 15 16 17 18 16 19 21 21 19 17 21 30
22 24 24 22 23 23 24 22 20 20 20 19 18 18 23 24 26 25 26 26 24 23 21 18 19 18 20 18 17 18 16 19 15 13 14 15 17 22 23 21 19 17 22
23 25 24 23 22 22 23 23 20 20 18 18 16 21 23 24 25 27 28 27 27 26 24 20 19 19 18 18 19 20 18 18 18 15 17 21 20 19 20 18 19 17 15
24 24 23 24 25 23 21 21 19 21 20 20 19 24 22 22 27 28 29 27 27 26 21 24 22 22 22 22 22 22 20 19 20 21 18 20 19 18 17 16 14 15 13
22 24 22 26 27 23 22 22 19 18 17 17 19 21 22 20 23 25 26 22 23 23 21 21 20 23 22 23 23 23 20 20 22 19 18 18 18 17 18 18 14 15 12
23 22 21 25 25 22 22 24 19 22 18 17 18 19 19 19 22 23 24 22 23 24 21 20 19 21 21 22 22 22 20 21 23 20 20 19 19 18 17 15 14 13 11
21 20 23 23 23 22 22 22 17 20 19 20 20 19 20 19 19 21 22 22 24 25 23 23 23 24 24 23 23 23 25 24 23 24 20 18 19 19 17 14 14 12 10
20 22 22 22 21 21 21 20 14 17 19 18 20 23 24 20 17 19 23 23 20 21 21 20 21 23 25 27 26 26 25 24 26 26 21 20 20 17 17 15 14 16 12
20 21 21 21 21 21 22 22 14 14 16 18 19 22 23 25 25 25 24 23 21 21 23 23 24 24 24 24 25 26 26 26 25 23 24 26 23 19 18 16 14 12 12
19 21 20 20 20 21 20 22 17 14 13 14 16 19 19 21 22 23 22 23 23 23 24 24 25 27 28 29 28 28 27 28 27 26 26 26 25 21 21 18 16 15 13
18 20 19 19 19 20 20 20 19 17 14 15 15 16 18 19 21 22 22 22 22 22 22 23 25 25 27 28 28 28 27 28 30 29 28 26 22 19 16 13 11 11 12
17 20 19 18 20 19 20 19 19 19 15 14 17 17 19 20 18 19 20 20 21 22 22 23 25 27 28 29 28 28 28 29 29 26 24 22 18 14 9 4 3 7 10
17 19 18 18 18 19 19 19 19 17 15 16 16 18 18 17 18 19 20 20 20 21 21 23 24 25 25 27 29 28 26 25 23 22 18 16 14 10 6 7 8 11 14
17 19 17 17 18 18 18 18 18 17 15 18 18 18 16 18 18 20 19 20 20 20 21 21 23 24 24 25 25 26 25 23 20 18 15 11 11 11 12 14 15 16 17
16 18 17 17 17 17 17 17 16 16 16 15 16 17 17 17 18 18 20 20 20 20 20 20 21 22 24 25 25 24 23 21 19 16 14 13 13 13 14 16 19 19 20
Wind_Direction
349 339 340 346 336 329 322 334 329 326 329 329 325 326 345 3 358 360 302 243 223 217 208 197 190 195 202 221 233 227 227 221 225 240 234 233 233 237 231 232 239 243 241
351 348 336 332 338 338 332 330 335 334 334 338 332 337 359 13 7 351 10 358 178 176 183 190 200 213 239 248 237 232 229 225 220 230 228 234 235 238 240 232 232 237 241
351 348 341 333 326 337 345 346 341 339 340 342 342 346 4 13 15 357 12 355 1 100 121 113 117 174 223 228 230 231 233 234 230 226 222 241 243 235 236 236 234 231 242
353 349 341 340 339 334 343 346 351 346 350 351 354 355 9 18 17 14 21 8 351 35 72 75 74 69 70 80 80 71 52 259 231 221 229 227 232 234 221 219 218 226 229
356 350 343 342 342 343 347 345 350 356 357 359 357 3 18 20 16 21 23 19 5 30 39 55 59 60 52 50 51 22 11 346 317 253 232 189 194 196 207 225 223 229 237
356 350 345 346 346 347 349 349 353 356 1 2 4 12 13 18 16 19 27 25 18 19 15 30 35 35 34 26 20 7 349 331 308 291 271 206 216 221 224 222 216 207 240
356 350 348 347 347 348 348 350 353 358 359 1 6 9 7 9 13 13 20 33 6 11 17 30 22 26 21 7 352 347 336 314 266 280 283 285 270 257 251 226 222 213 222
358 352 349 345 346 347 349 349 349 354 358 360 4 5 6 1 8 11 12 16 9 3 27 21 7 15 7 2 350 340 339 341 332 296 269 267 267 263 280 248 236 225 234
354 351 348 344 348 347 349 347 348 355 357 358 0 360 4 2 4 5 8 7 356 9 13 10 2 358 350 2 355 340 334 339 332 327 310 288 268 261 266 268 237 188 220
351 347 348 348 348 347 348 346 346 351 355 355 354 0 3 360 1 5 6 0 357 353 358 358 1 340 348 355 356 340 326 335 337 331 320 305 295 281 263 256 240 216 184
350 348 349 352 348 350 350 348 349 348 350 348 352 356 2 0 358 5 5 5 353 343 351 344 348 350 357 3 358 338 332 329 336 331 327 324 322 314 288 267 252 238 217
350 348 351 357 348 352 355 350 351 349 349 348 356 359 1 354 356 358 3 2 354 346 345 339 346 353 4 4 358 350 346 342 348 337 329 325 328 322 311 301 284 258 240
346 349 356 359 355 2 1 353 349 354 346 351 359 1 356 352 351 358 359 360 359 359 353 358 7 15 12 7 1 355 355 3 349 334 324 319 317 314 313 308 300 281 257
344 353 359 356 351 6 7 5 357 354 351 356 6 3 352 350 357 2 360 0 0 360 1 6 13 12 11 6 9 9 1 356 354 336 322 317 320 320 318 316 299 280 255
346 353 357 350 357 1 5 7 3 6 6 8 20 4 352 355 1 1 1 1 1 358 5 13 9 5 3 360 5 3 3 355 347 340 328 319 317 320 316 317 305 270 239
345 347 352 348 355 359 357 1 14 10 13 12 16 8 4 2 1 3 4 10 9 7 16 8 1 359 358 356 354 351 355 348 340 335 326 319 317 316 314 315 303 269 245
355 356 353 352 350 352 359 358 351 5 18 18 14 13 11 6 7 8 7 11 16 17 17 7 360 354 349 349 346 346 339 336 338 330 323 320 317 312 311 304 292 268 252
5 7 356 356 356 356 355 353 358 359 1 11 15 13 13 11 14 16 14 20 15 17 10 360 354 352 348 345 343 339 337 332 334 332 326 315 311 304 302 297 292 274 244
13 5 358 1 1 354 355 353 3 4 8 10 14 15 14 14 16 18 22 22 10 5 2 358 354 351 346 343 341 337 334 331 332 332 322 316 309 302 299 292 287 278 247
13 6 6 5 1 357 2 351 0 11 14 12 15 11 10 12 14 12 18 15 11 3 359 354 353 353 349 344 342 338 335 335 333 330 323 324 318 307 298 295 285 264 236
10 9 10 9 3 2 358 357 3 15 21 21 16 11 8 13 11 13 11 11 8 6 6 2 359 359 357 355 349 343 339 335 333 331 327 322 323 313 309 300 284 265 231
17 14 12 13 6 9 5 9 7 11 25 25 18 11 9 12 12 11 9 9 9 8 8 5 4 4 4 360 356 344 341 336 336 335 333 329 326 322 314 300 269 235 189
21 17 18 18 13 13 10 16 9 12 18 26 21 17 13 13 11 10 8 7 8 6 7 7 6 5 8 5 3 357 350 343 340 337 336 334 329 336 336 338 204 166 150
21 15 17 19 16 16 14 14 13 15 19 20 14 13 11 9 11 12 11 8 7 7 10 9 8 5 4 7 4 0 356 352 348 343 344 348 349 358 39 80 108 125 124
23 19 20 23 18 18 15 15 14 17 20 18 16 12 10 11 12 11 10 12 10 9 11 13 11 8 7 9 6 4 1 360 0 355 354 6 26 47 62 79 93 100 108
26 21 21 23 20 21 19 15 14 15 17 13 11 10 9 8 7 8 6 6 7 10 12 14 14 14 15 15 12 9 11 9 12 17 23 32 44 58 72 83 90 90 100